Welcome to our new website - Welkom op onze vernieuwde website - Bienvenue sur notre nouveau site web - Willkommen auf unserer neuen Website
Check our progress frequently. Prüfen Sie unsere Fortschritte regelmäßig. Consultez notre progression fréquemment. Komt u straks nog eens terug


Blik over 't Veldj richting Zuid-Westen Meer informatie Blik over 't Veldj richting Zuid-Westen


Onweer radar Meer informatie blitzortung!


Regen radar Meer informatie rain snow radar


Bezoek onze andere website:

Template documentation
and downloads

And another site


Select another period ( hide this area )

Eenheden Periode Custom range Directly to
Metrisch Engels Beide
Dagelijkse Wekelijkse Maandelijkse Jaarlijkse
use both date-selectors for a custom range
previous Dag
With this date

WeatherUnderground graphs for this period ( click here )


Dagelijkse Samenvatting Vrijdag 24 januari 2020
Tijd Temp. ( °C ) Dew pt. ( °C ) Wind ( km/h ) van Windvlaag ( km/h ) Luchtdruk ( hPa ) Humid.( % ) Rainrate ( cm )
Hoog1,8 0,8 6,4 ZZO ( 87/340 ) 9,7 1026,6 96 -
Gemiddeld1,2 -0,1 1,2 Kalm #153/281 3,5 1024,4 92 -
Laag0,8 -0,5 -   0,0 1022,9 89 -
Dagelijkse Tabular details for Vrijdag 24 januari 2020
Tijd Temp. ( °C ) Dew pt. ( °C ) Wind ( km/h ) van Windvlaag ( km/h ) Luchtdruk ( hPa ) Humid.( % ) Rainrate ( cm )
00:04 1,8 0,8   Kalm 1,6 1026,6 93 -
00:09 1,8 0,8   Kalm   1026,6 93 -
00:14 1,8 0,8   Kalm 3,2 1026,6 93 -
00:19 1,8 0,8 1,4 OZO 3,2 1026,6 93 -
00:24 1,7 0,5 1,4 ZZO 4,8 1026,3 92 -
00:29 1,7 0,5   Kalm 3,2 1026,3 92 -
00:34 1,7 0,5 1,4 ZZO 3,2 1026,3 92 -
00:39 1,6 0,3   Kalm 1,6 1026,3 91 -
00:44 1,6 0,3 1,4 Oosten 4,8 1026,3 91 -
00:49 1,6 0,3   Kalm   1026,3 91 -
00:54 1,6 0,3   Kalm   1026,3 91 -
00:59 1,6 0,1 3,2 ZO 6,4 1026,0 90 -
01:04 1,6 0,1   Kalm   1026,0 90 -
01:09 1,6 0,1   Kalm 3,2 1026,0 90 -
01:14 1,6 0,1   Kalm 1,6 1026,0 90 -
01:19 1,5 0,0 4,7 ZZO 6,4 1026,0 90 -
01:24 1,5 0,0 1,4 ZW 1,6 1025,6 90 -
01:29 1,4 -0,1   Kalm 3,2 1026,0 90 -
01:34 1,4 -0,1 3,2 ZZO 4,8 1026,0 90 -
01:39 1,4 -0,1   Kalm 3,2 1025,6 90 -
01:44 1,3 -0,2   Kalm 3,2 1025,6 90 -
01:49 1,3 -0,2 1,4 ZZW 1,6 1025,6 90 -
01:54 1,3 -0,2   Kalm 4,8 1025,6 90 -
01:59 1,3 -0,2 3,2 ZZW 6,4 1026,0 90 -
02:04 1,2 -0,3 1,4 Zuiden 4,8 1026,0 90 -
02:09 1,2 -0,3 1,4 ZZW 3,2 1026,0 90 -
02:14 1,1 -0,4   Kalm   1025,6 90 -
02:19 1,1 -0,4 3,2 Zuiden 3,2 1026,0 90 -
02:24 1,1 -0,2 3,2 ZW 3,2 1026,0 91 -
02:30 1,1 -0,2   Kalm 3,2 1026,0 91 -
02:35 1,1 -0,1 3,2 ZZO 3,2 1025,6 92 -
02:40 1,0 -0,3 1,4 Zuiden 4,8 1026,0 91 -
02:45 0,9 -0,3   Kalm 3,2 1026,0 92 -
02:50 0,9 -0,3   Kalm 3,2 1025,6 92 -
02:55 0,9 -0,3   Kalm 3,2 1025,6 92 -
03:00 0,9 -0,3   Kalm   1025,6 92 -
03:05 0,9 -0,3   Kalm   1025,6 92 -
03:10 0,9 -0,3   Kalm   1025,6 92 -
03:15 0,9 -0,3   Kalm 3,2 1025,6 92 -
03:20 0,9 -0,3 1,4 ZW 3,2 1025,6 92 -
03:25 0,9 -0,3   Kalm 3,2 1025,3 92 -
03:30 0,9 -0,3 3,2 ZZW 4,8 1025,3 92 -
03:35 0,9 -0,1 3,2 Zuiden 4,8 1025,3 93 -
03:40 0,9 -0,1   Kalm 6,4 1025,3 93 -
03:45 0,9 -0,1   Kalm 3,2 1025,3 93 -
03:50 0,9 -0,1 3,2 ZO 3,2 1025,3 93 -
03:55 0,9 -0,1   Kalm 1,6 1024,9 93 -
04:00 0,8 -0,2 1,4 ZZO 3,2 1024,9 93 -
04:05 0,8 -0,1 3,2 ZW 3,2 1024,9 94 -
04:10 0,8 -0,1 1,4 ZZW 4,8 1024,9 94 -
04:15 0,8 -0,1 3,2 ZW 3,2 1024,9 94 -
04:20 0,8 -0,1 4,7 ZZW 6,4 1024,6 94 -
04:25 0,9 0,0   Kalm 6,4 1024,9 94 -
04:30 0,9 0,0 1,4 ZW 3,2 1024,9 94 -
04:35 0,8 0,1   Kalm 3,2 1024,9 95 -
04:40 0,9 0,2   Kalm 1,6 1024,9 95 -
04:45 0,8 0,1 1,4 WZW 3,2 1024,9 95 -
04:50 0,9 0,2 3,2 WZW 3,2 1024,9 95 -
04:55 0,8 0,1   Kalm 3,2 1024,9 95 -
05:00 0,9 0,2 3,2 Westen 3,2 1024,9 95 -
05:05 0,9 0,2   Kalm 4,8 1024,9 95 -
05:10 0,9 0,2   Kalm 4,8 1024,9 95 -
05:15 0,8 0,2 3,2 WNW 8,0 1024,9 96 -
05:20 0,8 0,2 1,4 WNW 3,2 1024,9 96 -
05:25 0,8 0,2 3,2 NW 3,2 1024,9 96 -
05:30 0,8 0,2 1,4 WNW 3,2 1024,9 96 -
05:35 0,8 0,2   Kalm 3,2 1024,9 96 -
05:40 0,8 0,2   Kalm 3,2 1024,6 96 -
05:45 0,8 0,2   Kalm 3,2 1024,6 96 -
05:50 0,8 0,2 3,2 WZW 4,8 1024,6 96 -
05:55 0,8 0,2   Kalm   1024,6 96 -
06:00 0,8 0,2   Kalm 1,6 1024,6 96 -
06:05 0,8 0,2   Kalm 1,6 1024,6 96 -
06:10 0,9 0,3   Kalm   1024,3 96 -
06:15 0,9 0,3   Kalm 1,6 1024,3 96 -
06:20 0,9 0,3   Kalm 3,2 1024,3 96 -
06:25 0,9 0,3   Kalm 4,8 1024,3 96 -
06:30 1,0 0,4 1,4 ZW 4,8 1024,3 96 -
06:35 1,0 0,4 1,4 Zuiden 4,8 1024,3 96 -
06:40 1,0 0,4   Kalm 1,6 1023,9 96 -
06:45 1,1 0,5   Kalm 1,6 1024,3 96 -
06:50 1,1 0,5   Kalm 6,4 1024,3 96 -
06:55 1,1 0,5   Kalm 1,6 1024,3 96 -
07:00 1,1 0,5 3,2 ZZW 8,0 1024,3 96 -
07:05 1,1 0,5   Kalm 4,8 1024,3 96 -
07:10 1,1 0,5 1,4 ZZO 6,4 1024,3 96 -
07:15 1,1 0,5   Kalm 1,6 1023,9 96 -
07:20 1,2 0,6   Kalm 3,2 1024,3 96 -
07:25 1,2 0,6 4,7 ZZW 9,7 1024,3 96 -
07:30 1,2 0,6 1,4 ZZO 1,6 1024,3 96 -
07:35 1,2 0,6 3,2 Zuiden 6,4 1024,3 96 -
07:40 1,2 0,6 4,7 WZW 9,7 1023,9 96 -
07:45 1,2 0,6 6,4 ZW 9,7 1023,9 96 -
07:50 1,2 0,6   Kalm 6,4 1024,3 96 -
07:55 1,2 0,6   Kalm 4,8 1024,3 96 -
08:01 1,2 0,6 1,4 Zuiden 4,8 1024,3 96 -
08:06 1,2 0,6 3,2 Zuiden 6,4 1024,3 96 -
08:11 1,2 0,6 1,4 ZZO 8,0 1024,3 96 -
08:16 1,2 0,6   Kalm 3,2 1024,3 96 -
08:21 1,2 0,6   Kalm 3,2 1024,3 96 -
08:26 1,2 0,6 1,4 ZZO 8,0 1024,3 96 -
08:31 1,2 0,6 1,4 ZZW 3,2 1024,3 96 -
08:36 1,2 0,6 1,4 ZZW 6,4 1024,6 96 -
08:41 1,2 0,6 3,2 ZZW 6,4 1024,6 96 -
08:46 1,2 0,5   Kalm 3,2 1024,6 95 -
08:51 1,2 0,5   Kalm 4,8 1024,6 95 -
08:56 1,2 0,5   Kalm 4,8 1024,6 95 -
09:01 1,2 0,5   Kalm 3,2 1024,6 95 -
09:06 1,2 0,5   Kalm 4,8 1024,6 95 -
09:11 1,2 0,5 1,4 ZW 4,8 1024,6 95 -
09:16 1,2 0,5   Kalm 6,4 1024,6 95 -
09:21 1,2 0,3   Kalm 4,8 1024,6 94 -
09:26 1,2 0,3 4,7 ZZO 8,0 1024,6 94 -
09:31 1,2 0,3   Kalm 3,2 1024,6 94 -
09:36 1,2 0,2 3,2 WZW 3,2 1024,6 93 -
09:41 1,1 0,1 4,7 ZZW 6,4 1024,6 93 -
09:46 1,1 0,1 4,7 Zuiden 9,7 1024,6 93 -
09:51 1,1 -0,1 6,4 Zuiden 8,0 1024,6 92 -
09:56 1,1 -0,1   Kalm 3,2 1024,6 92 -
10:01 1,1 -0,1 1,4 Westen 6,4 1024,6 92 -
10:06 1,2 0,0 1,4 ZZO 4,8 1024,6 92 -
10:11 1,2 0,0 3,2 ZZO 4,8 1024,6 92 -
10:16 1,2 0,0 1,4 ZZW 6,4 1024,6 92 -
10:21 1,2 0,0   Kalm 1,6 1024,9 92 -
10:26 1,2 0,0 3,2 ZW 4,8 1024,9 92 -
10:31 1,2 0,0 1,4 Zuiden 6,4 1024,9 92 -
10:36 1,2 0,0 1,4 ZW 3,2 1024,9 92 -
10:41 1,2 -0,1 1,4 WZW 8,0 1024,9 91 -
10:46 1,2 -0,1   Kalm 6,4 1024,9 91 -
10:51 1,2 -0,1   Kalm 4,8 1024,9 91 -
10:56 1,2 -0,1   Kalm 1,6 1024,9 91 -
11:01 1,2 -0,1 1,4 WZW 4,8 1024,9 91 -
11:06 1,2 -0,1 4,7 ZZW 8,0 1024,9 91 -
11:11 1,1 -0,2   Kalm 4,8 1024,9 91 -
11:16 1,1 -0,2   Kalm 4,8 1024,9 91 -
11:21 1,1 -0,2   Kalm 4,8 1024,9 91 -
11:26 1,1 -0,2 1,4 ZZW 4,8 1024,9 91 -
11:31 1,1 -0,2   Kalm 4,8 1024,9 91 -
11:36 1,1 -0,2   Kalm 4,8 1024,9 91 -
11:41 1,1 -0,2 3,2 ZZO 3,2 1024,9 91 -
11:46 1,2 -0,1   Kalm 1,6 1024,9 91 -
11:51 1,2 -0,1   Kalm 1,6 1024,9 91 -
11:56 1,2 -0,1   Kalm 3,2 1024,9 91 -
12:02 1,2 -0,1 3,2 Zuiden 3,2 1024,9 91 -
12:07 1,2 -0,1   Kalm 3,2 1024,9 91 -
12:12 1,3 0,0   Kalm 1,6 1024,9 91 -
12:17 1,3 0,0 3,2 ZW 6,4 1024,9 91 -
12:22 1,2 -0,3 1,4 WZW 3,2 1024,9 90 -
12:27 1,2 -0,1 1,4 ZW 3,2 1024,9 91 -
12:32 1,2 -0,1   Kalm   1024,9 91 -
12:37 1,2 -0,1 3,2 ZZO 6,4 1024,6 91 -
12:42 1,2 -0,1   Kalm 1,6 1024,6 91 -
12:47 1,2 -0,1 1,4 ZW 1,6 1024,6 91 -
12:52 1,3 0,0   Kalm 1,6 1024,6 91 -
12:57 1,3 0,0   Kalm 1,6 1024,6 91 -
13:02 1,3 0,0 1,4 WZW 3,2 1024,6 91 -
13:07 1,2 -0,1   Kalm 3,2 1024,6 91 -
13:12 1,2 -0,1   Kalm 6,4 1024,6 91 -
13:17 1,2 -0,1   Kalm   1024,3 91 -
13:22 1,2 -0,1 1,4 ZW 4,8 1024,3 91 -
13:27 1,2 -0,1 1,4 WNW 1,6 1024,6 91 -
13:32 1,2 0,0   Kalm 1,6 1024,3 92 -
13:37 1,2 -0,1   Kalm   1024,3 91 -
13:42 1,2 -0,1 1,4 Zuiden 6,4 1024,3 91 -
13:47 1,2 -0,1 3,2 ZW 4,8 1024,3 91 -
13:52 1,2 -0,1   Kalm 3,2 1024,3 91 -
13:57 1,2 -0,1 4,7 ZZO 6,4 1023,9 91 -
14:02 1,2 -0,1   Kalm 4,8 1024,3 91 -
14:07 1,2 -0,3 3,2 Zuiden 4,8 1024,3 90 -
14:12 1,2 -0,1   Kalm 1,6 1023,9 91 -
14:17 1,2 -0,3 3,2 Zuiden 3,2 1023,9 90 -
14:22 1,2 -0,3 1,4 ZW 4,8 1023,9 90 -
14:27 1,3 -0,2 3,2 ZZO 4,8 1023,9 90 -
14:32 1,3 -0,2   Kalm 3,2 1023,9 90 -
14:37 1,2 -0,3   Kalm 4,8 1023,9 90 -
14:42 1,2 -0,3 3,2 ZZO 3,2 1023,9 90 -
14:47 1,2 -0,3 1,4 ZO 4,8 1023,6 90 -
14:52 1,2 -0,3 1,4 ZW 6,4 1023,6 90 -
14:57 1,2 -0,3   Kalm 4,8 1023,6 90 -
15:02 1,2 -0,3   Kalm 3,2 1023,2 90 -
15:07 1,2 -0,3 1,4 ZW 4,8 1023,6 90 -
15:12 1,2 -0,4 6,4 ZZO 8,0 1023,6 89 -
15:17 1,2 -0,4 3,2 ZW 4,8 1023,6 89 -
15:22 1,2 -0,3 1,4 ZZO 3,2 1023,6 90 -
15:27 1,3 -0,3 1,4 ZZO 6,4 1023,6 89 -
15:32 1,2 -0,4   Kalm 4,8 1023,6 89 -
15:37 1,2 -0,4 3,2 ZZO 6,4 1023,6 89 -
15:42 1,2 -0,4 6,4 Zuiden 6,4 1023,2 89 -
15:47 1,2 -0,4 1,4 ZO 6,4 1023,2 89 -
15:52 1,2 -0,4   Kalm 3,2 1023,2 89 -
15:57 1,2 -0,4 3,2 ZO 8,0 1023,2 89 -
16:02 1,2 -0,4 4,7 WZW 4,8 1023,2 89 -
16:07 1,1 -0,5   Kalm 3,2 1023,2 89 -
16:12 1,1 -0,5 3,2 ZZW 4,8 1023,2 89 -
16:17 1,1 -0,5 1,4 Westen 3,2 1023,2 89 -
16:22 1,1 -0,5 6,4 ZZW 6,4 1023,2 89 -
16:27 1,1 -0,5 1,4 Zuiden 3,2 1023,2 89 -
16:32 1,1 -0,5   Kalm 4,8 1023,2 89 -
16:37 1,1 -0,5 1,4 ZW 4,8 1023,2 89 -
16:42 1,1 -0,5 6,4 ZZO 6,4 1023,2 89 -
16:47 1,1 -0,5 4,7 ZW 4,8 1023,2 89 -
16:52 1,1 -0,5   Kalm 6,4 1023,2 89 -
16:57 1,1 -0,5 1,4 ZW 4,8 1023,2 89 -
17:02 1,2 -0,3 3,2 ZZO 6,4 1023,2 90 -
17:07 1,1 -0,5 6,4 ZO 6,4 1022,9 89 -
17:12 1,1 -0,5 1,4 Zuiden 4,8 1023,2 89 -
17:17 1,1 -0,5 4,7 Zuiden 6,4 1023,2 89 -
17:22 1,1 -0,5 1,4 ZW 3,2 1023,2 89 -
17:27 1,1 -0,5 3,2 ZZO 6,4 1023,2 89 -
17:32 1,1 -0,5 1,4 Zuiden 4,8 1022,9 89 -
17:37 1,1 -0,5 3,2 ZW 4,8 1022,9 89 -
17:42 1,1 -0,5   Kalm 3,2 1022,9 89 -
17:47 1,1 -0,5   Kalm 1,6 1023,2 89 -
17:52 1,1 -0,4   Kalm 1,6 1023,2 90 -
17:57 1,1 -0,5 3,2 ZZO 3,2 1023,2 89 -
18:02 1,1 -0,4   Kalm 3,2 1023,2 90 -
18:07 1,1 -0,4   Kalm 1,6 1023,2 90 -
18:12 1,1 -0,4   Kalm   1023,2 90 -
18:17 1,2 -0,3   Kalm 1,6 1023,2 90 -
18:22 1,2 -0,3   Kalm   1023,2 90 -
18:27 1,2 -0,3   Kalm   1023,2 90 -
18:32 1,2 -0,3 1,4 WNW 1,6 1023,2 90 -
18:37 1,2 -0,3   Kalm 1,6 1023,2 90 -
18:42 1,2 -0,3   Kalm   1023,6 90 -
18:47 1,2 -0,3   Kalm   1023,6 90 -
18:52 1,2 -0,3   Kalm 1,6 1023,6 90 -
18:57 1,2 -0,3   Kalm 1,6 1023,6 90 -
19:02 1,2 -0,3   Kalm   1023,6 90 -
19:07 1,2 -0,3   Kalm   1023,6 90 -
19:13 1,2 -0,3   Kalm   1023,6 90 -
19:18 1,2 -0,3   Kalm   1023,6 90 -
19:23 1,2 -0,3   Kalm   1023,6 90 -
19:28 1,3 -0,2   Kalm   1023,6 90 -
19:33 1,3 -0,2   Kalm   1023,9 90 -
19:38 1,3 -0,2   Kalm   1023,9 90 -
19:43 1,3 -0,2   Kalm   1023,9 90 -
19:48 1,3 -0,2   Kalm   1023,9 90 -
19:53 1,3 -0,2   Kalm 1,6 1023,9 90 -
19:58 1,3 -0,2   Kalm   1023,9 90 -
20:03 1,3 -0,2   Kalm 1,6 1023,9 90 -
20:08 1,3 -0,2   Kalm   1023,9 90 -
20:13 1,3 -0,2 1,4 ZW 1,6 1023,9 90 -
20:18 1,3 -0,2   Kalm   1023,9 90 -
20:23 1,3 -0,2   Kalm 3,2 1023,9 90 -
20:28 1,3 -0,2   Kalm   1023,9 90 -
20:33 1,3 -0,2   Kalm   1023,9 90 -
20:38 1,3 0,0   Kalm   1023,9 91 -
20:43 1,3 0,0   Kalm   1023,9 91 -
20:48 1,3 -0,2   Kalm   1023,9 90 -
20:53 1,3 -0,2   Kalm   1023,9 90 -
20:58 1,3 -0,2   Kalm   1024,3 90 -
21:03 1,3 -0,2   Kalm   1024,3 90 -
21:08 1,3 -0,2   Kalm   1024,3 90 -
21:13 1,3 -0,2   Kalm   1024,3 90 -
21:18 1,3 -0,2   Kalm   1024,3 90 -
21:23 1,4 -0,1   Kalm   1023,9 90 -
21:28 1,4 -0,1   Kalm   1023,9 90 -
21:33 1,3 -0,2   Kalm   1023,9 90 -
21:38 1,3 -0,2   Kalm 1,6 1023,9 90 -
21:43 1,3 -0,2   Kalm 3,2 1023,9 90 -
21:49 1,3 -0,2   Kalm 1,6 1023,9 90 -
21:54 1,3 -0,2   Kalm   1023,9 90 -
21:59 1,3 -0,2   Kalm   1023,9 90 -
22:04 1,3 -0,2 1,4 ZZO 1,6 1023,9 90 -
22:09 1,3 -0,2   Kalm 3,2 1023,9 90 -
22:14 1,3 -0,2   Kalm   1023,9 90 -
22:19 1,3 -0,2 3,2 ZZW 3,2 1023,9 90 -
22:24 1,3 -0,2   Kalm 3,2 1023,9 90 -
22:29 1,3 -0,2 3,2 ZW 3,2 1023,6 90 -
22:34 1,3 -0,2 1,4 ZW 1,6 1023,6 90 -
22:39 1,3 -0,2 1,4 ZZW 3,2 1023,6 90 -
22:44 1,3 -0,2   Kalm 1,6 1023,6 90 -
22:49 1,3 -0,2   Kalm 4,8 1023,6 90 -
22:54 1,3 -0,2 6,4 ZZW 6,4 1023,6 90 -
22:59 1,2 -0,3 3,2 ZO 6,4 1023,6 90 -
23:04 1,2 -0,3 1,4 Zuiden 6,4 1023,6 90 -
23:09 1,1 -0,4 3,2 ZZO 8,0 1023,6 90 -
23:14 1,1 -0,4   Kalm 3,2 1023,2 90 -
23:19 1,1 -0,4 1,4 ZZO 3,2 1023,6 90 -
23:24 1,1 -0,4 1,4 ZZO 6,4 1023,6 90 -
23:29 1,1 -0,4 3,2 ZZO 4,8 1023,6 90 -
Dagelijkse Samenvatting Vrijdag 24 januari 2020
Tijd Temp. ( °C ) Dew pt. ( °C ) Wind ( km/h ) van Windvlaag ( km/h ) Luchtdruk ( hPa ) Humid.( % ) Rainrate ( cm )
Hoog1,8 0,8 6,4 ZZO ( 87/340 ) 9,7 1026,6 96 -
Gemiddeld1,2 -0,1 1,2 Kalm #153/281 3,5 1024,4 92 -
Laag0,8 -0,5 -   0,0 1022,9 89 -
Dagelijkse Tabular details for Vrijdag 24 januari 2020
Tijd Temp. ( °C ) Dew pt. ( °C ) Wind ( km/h ) van Windvlaag ( km/h ) Luchtdruk ( hPa ) Humid.( % ) Rainrate ( cm )
00:04 1,8 0,8   Kalm 1,6 1026,6 93 -
00:09 1,8 0,8   Kalm   1026,6 93 -
00:14 1,8 0,8   Kalm 3,2 1026,6 93 -
00:19 1,8 0,8 1,4 OZO 3,2 1026,6 93 -
00:24 1,7 0,5 1,4 ZZO 4,8 1026,3 92 -
00:29 1,7 0,5   Kalm 3,2 1026,3 92 -
00:34 1,7 0,5 1,4 ZZO 3,2 1026,3 92 -
00:39 1,6 0,3   Kalm 1,6 1026,3 91 -
00:44 1,6 0,3 1,4 Oosten 4,8 1026,3 91 -
00:49 1,6 0,3   Kalm   1026,3 91 -
00:54 1,6 0,3   Kalm   1026,3 91 -
00:59 1,6 0,1 3,2 ZO 6,4 1026,0 90 -
01:04 1,6 0,1   Kalm   1026,0 90 -
01:09 1,6 0,1   Kalm 3,2 1026,0 90 -
01:14 1,6 0,1   Kalm 1,6 1026,0 90 -
01:19 1,5 0,0 4,7 ZZO 6,4 1026,0 90 -
01:24 1,5 0,0 1,4 ZW 1,6 1025,6 90 -
01:29 1,4 -0,1   Kalm 3,2 1026,0 90 -
01:34 1,4 -0,1 3,2 ZZO 4,8 1026,0 90 -
01:39 1,4 -0,1   Kalm 3,2 1025,6 90 -
01:44 1,3 -0,2   Kalm 3,2 1025,6 90 -
01:49 1,3 -0,2 1,4 ZZW 1,6 1025,6 90 -
01:54 1,3 -0,2   Kalm 4,8 1025,6 90 -
01:59 1,3 -0,2 3,2 ZZW 6,4 1026,0 90 -
02:04 1,2 -0,3 1,4 Zuiden 4,8 1026,0 90 -
02:09 1,2 -0,3 1,4 ZZW 3,2 1026,0 90 -
02:14 1,1 -0,4   Kalm   1025,6 90 -
02:19 1,1 -0,4 3,2 Zuiden 3,2 1026,0 90 -
02:24 1,1 -0,2 3,2 ZW 3,2 1026,0 91 -
02:30 1,1 -0,2   Kalm 3,2 1026,0 91 -
02:35 1,1 -0,1 3,2 ZZO 3,2 1025,6 92 -
02:40 1,0 -0,3 1,4 Zuiden 4,8 1026,0 91 -
02:45 0,9 -0,3   Kalm 3,2 1026,0 92 -
02:50 0,9 -0,3   Kalm 3,2 1025,6 92 -
02:55 0,9 -0,3   Kalm 3,2 1025,6 92 -
03:00 0,9 -0,3   Kalm   1025,6 92 -
03:05 0,9 -0,3   Kalm   1025,6 92 -
03:10 0,9 -0,3   Kalm   1025,6 92 -
03:15 0,9 -0,3   Kalm 3,2 1025,6 92 -
03:20 0,9 -0,3 1,4 ZW 3,2 1025,6 92 -
03:25 0,9 -0,3   Kalm 3,2 1025,3 92 -
03:30 0,9 -0,3 3,2 ZZW 4,8 1025,3 92 -
03:35 0,9 -0,1 3,2 Zuiden 4,8 1025,3 93 -
03:40 0,9 -0,1   Kalm 6,4 1025,3 93 -
03:45 0,9 -0,1   Kalm 3,2 1025,3 93 -
03:50 0,9 -0,1 3,2 ZO 3,2 1025,3 93 -
03:55 0,9 -0,1   Kalm 1,6 1024,9 93 -
04:00 0,8 -0,2 1,4 ZZO 3,2 1024,9 93 -
04:05 0,8 -0,1 3,2 ZW 3,2 1024,9 94 -
04:10 0,8 -0,1 1,4 ZZW 4,8 1024,9 94 -
04:15 0,8 -0,1 3,2 ZW 3,2 1024,9 94 -
04:20 0,8 -0,1 4,7 ZZW 6,4 1024,6 94 -
04:25 0,9 0,0   Kalm 6,4 1024,9 94 -
04:30 0,9 0,0 1,4 ZW 3,2 1024,9 94 -
04:35 0,8 0,1   Kalm 3,2 1024,9 95 -
04:40 0,9 0,2   Kalm 1,6 1024,9 95 -
04:45 0,8 0,1 1,4 WZW 3,2 1024,9 95 -
04:50 0,9 0,2 3,2 WZW 3,2 1024,9 95 -
04:55 0,8 0,1   Kalm 3,2 1024,9 95 -
05:00 0,9 0,2 3,2 Westen 3,2 1024,9 95 -
05:05 0,9 0,2   Kalm 4,8 1024,9 95 -
05:10 0,9 0,2   Kalm 4,8 1024,9 95 -
05:15 0,8 0,2 3,2 WNW 8,0 1024,9 96 -
05:20 0,8 0,2 1,4 WNW 3,2 1024,9 96 -
05:25 0,8 0,2 3,2 NW 3,2 1024,9 96 -
05:30 0,8 0,2 1,4 WNW 3,2 1024,9 96 -
05:35 0,8 0,2   Kalm 3,2 1024,9 96 -
05:40 0,8 0,2   Kalm 3,2 1024,6 96 -
05:45 0,8 0,2   Kalm 3,2 1024,6 96 -
05:50 0,8 0,2 3,2 WZW 4,8 1024,6 96 -
05:55 0,8 0,2   Kalm   1024,6 96 -
06:00 0,8 0,2   Kalm 1,6 1024,6 96 -
06:05 0,8 0,2   Kalm 1,6 1024,6 96 -
06:10 0,9 0,3   Kalm   1024,3 96 -
06:15 0,9 0,3   Kalm 1,6 1024,3 96 -
06:20 0,9 0,3   Kalm 3,2 1024,3 96 -
06:25 0,9 0,3   Kalm 4,8 1024,3 96 -
06:30 1,0 0,4 1,4 ZW 4,8 1024,3 96 -
06:35 1,0 0,4 1,4 Zuiden 4,8 1024,3 96 -
06:40 1,0 0,4   Kalm 1,6 1023,9 96 -
06:45 1,1 0,5   Kalm 1,6 1024,3 96 -
06:50 1,1 0,5   Kalm 6,4 1024,3 96 -
06:55 1,1 0,5   Kalm 1,6 1024,3 96 -
07:00 1,1 0,5 3,2 ZZW 8,0 1024,3 96 -
07:05 1,1 0,5   Kalm 4,8 1024,3 96 -
07:10 1,1 0,5 1,4 ZZO 6,4 1024,3 96 -
07:15 1,1 0,5   Kalm 1,6 1023,9 96 -
07:20 1,2 0,6   Kalm 3,2 1024,3 96 -
07:25 1,2 0,6 4,7 ZZW 9,7 1024,3 96 -
07:30 1,2 0,6 1,4 ZZO 1,6 1024,3 96 -
07:35 1,2 0,6 3,2 Zuiden 6,4 1024,3 96 -
07:40 1,2 0,6 4,7 WZW 9,7 1023,9 96 -
07:45 1,2 0,6 6,4 ZW 9,7 1023,9 96 -
07:50 1,2 0,6   Kalm 6,4 1024,3 96 -
07:55 1,2 0,6   Kalm 4,8 1024,3 96 -
08:01 1,2 0,6 1,4 Zuiden 4,8 1024,3 96 -
08:06 1,2 0,6 3,2 Zuiden 6,4 1024,3 96 -
08:11 1,2 0,6 1,4 ZZO 8,0 1024,3 96 -
08:16 1,2 0,6   Kalm 3,2 1024,3 96 -
08:21 1,2 0,6   Kalm 3,2 1024,3 96 -
08:26 1,2 0,6 1,4 ZZO 8,0 1024,3 96 -
08:31 1,2 0,6 1,4 ZZW 3,2 1024,3 96 -
08:36 1,2 0,6 1,4 ZZW 6,4 1024,6 96 -
08:41 1,2 0,6 3,2 ZZW 6,4 1024,6 96 -
08:46 1,2 0,5   Kalm 3,2 1024,6 95 -
08:51 1,2 0,5   Kalm 4,8 1024,6 95 -
08:56 1,2 0,5   Kalm 4,8 1024,6 95 -
09:01 1,2 0,5   Kalm 3,2 1024,6 95 -
09:06 1,2 0,5   Kalm 4,8 1024,6 95 -
09:11 1,2 0,5 1,4 ZW 4,8 1024,6 95 -
09:16 1,2 0,5   Kalm 6,4 1024,6 95 -
09:21 1,2 0,3   Kalm 4,8 1024,6 94 -
09:26 1,2 0,3 4,7 ZZO 8,0 1024,6 94 -
09:31 1,2 0,3   Kalm 3,2 1024,6 94 -
09:36 1,2 0,2 3,2 WZW 3,2 1024,6 93 -
09:41 1,1 0,1 4,7 ZZW 6,4 1024,6 93 -
09:46 1,1 0,1 4,7 Zuiden 9,7 1024,6 93 -
09:51 1,1 -0,1 6,4 Zuiden 8,0 1024,6 92 -
09:56 1,1 -0,1   Kalm 3,2 1024,6 92 -
10:01 1,1 -0,1 1,4 Westen 6,4 1024,6 92 -
10:06 1,2 0,0 1,4 ZZO 4,8 1024,6 92 -
10:11 1,2 0,0 3,2 ZZO 4,8 1024,6 92 -
10:16 1,2 0,0 1,4 ZZW 6,4 1024,6 92 -
10:21 1,2 0,0   Kalm 1,6 1024,9 92 -
10:26 1,2 0,0 3,2 ZW 4,8 1024,9 92 -
10:31 1,2 0,0 1,4 Zuiden 6,4 1024,9 92 -
10:36 1,2 0,0 1,4 ZW 3,2 1024,9 92 -
10:41 1,2 -0,1 1,4 WZW 8,0 1024,9 91 -
10:46 1,2 -0,1   Kalm 6,4 1024,9 91 -
10:51 1,2 -0,1   Kalm 4,8 1024,9 91 -
10:56 1,2 -0,1   Kalm 1,6 1024,9 91 -
11:01 1,2 -0,1 1,4 WZW 4,8 1024,9 91 -
11:06 1,2 -0,1 4,7 ZZW 8,0 1024,9 91 -
11:11 1,1 -0,2   Kalm 4,8 1024,9 91 -
11:16 1,1 -0,2   Kalm 4,8 1024,9 91 -
11:21 1,1 -0,2   Kalm 4,8 1024,9 91 -
11:26 1,1 -0,2 1,4 ZZW 4,8 1024,9 91 -
11:31 1,1 -0,2   Kalm 4,8 1024,9 91 -
11:36 1,1 -0,2   Kalm 4,8 1024,9 91 -
11:41 1,1 -0,2 3,2 ZZO 3,2 1024,9 91 -
11:46 1,2 -0,1   Kalm 1,6 1024,9 91 -
11:51 1,2 -0,1   Kalm 1,6 1024,9 91 -
11:56 1,2 -0,1   Kalm 3,2 1024,9 91 -
12:02 1,2 -0,1 3,2 Zuiden 3,2 1024,9 91 -
12:07 1,2 -0,1   Kalm 3,2 1024,9 91 -
12:12 1,3 0,0   Kalm 1,6 1024,9 91 -
12:17 1,3 0,0 3,2 ZW 6,4 1024,9 91 -
12:22 1,2 -0,3 1,4 WZW 3,2 1024,9 90 -
12:27 1,2 -0,1 1,4 ZW 3,2 1024,9 91 -
12:32 1,2 -0,1   Kalm   1024,9 91 -
12:37 1,2 -0,1 3,2 ZZO 6,4 1024,6 91 -
12:42 1,2 -0,1   Kalm 1,6 1024,6 91 -
12:47 1,2 -0,1 1,4 ZW 1,6 1024,6 91 -
12:52 1,3 0,0   Kalm 1,6 1024,6 91 -
12:57 1,3 0,0   Kalm 1,6 1024,6 91 -
13:02 1,3 0,0 1,4 WZW 3,2 1024,6 91 -
13:07 1,2 -0,1   Kalm 3,2 1024,6 91 -
13:12 1,2 -0,1   Kalm 6,4 1024,6 91 -
13:17 1,2 -0,1   Kalm   1024,3 91 -
13:22 1,2 -0,1 1,4 ZW 4,8 1024,3 91 -
13:27 1,2 -0,1 1,4 WNW 1,6 1024,6 91 -
13:32 1,2 0,0   Kalm 1,6 1024,3 92 -
13:37 1,2 -0,1   Kalm   1024,3 91 -
13:42 1,2 -0,1 1,4 Zuiden 6,4 1024,3 91 -
13:47 1,2 -0,1 3,2 ZW 4,8 1024,3 91 -
13:52 1,2 -0,1   Kalm 3,2 1024,3 91 -
13:57 1,2 -0,1 4,7 ZZO 6,4 1023,9 91 -
14:02 1,2 -0,1   Kalm 4,8 1024,3 91 -
14:07 1,2 -0,3 3,2 Zuiden 4,8 1024,3 90 -
14:12 1,2 -0,1   Kalm 1,6 1023,9 91 -
14:17 1,2 -0,3 3,2 Zuiden 3,2 1023,9 90 -
14:22 1,2 -0,3 1,4 ZW 4,8 1023,9 90 -
14:27 1,3 -0,2 3,2 ZZO 4,8 1023,9 90 -
14:32 1,3 -0,2   Kalm 3,2 1023,9 90 -
14:37 1,2 -0,3   Kalm 4,8 1023,9 90 -
14:42 1,2 -0,3 3,2 ZZO 3,2 1023,9 90 -
14:47 1,2 -0,3 1,4 ZO 4,8 1023,6 90 -
14:52 1,2 -0,3 1,4 ZW 6,4 1023,6 90 -
14:57 1,2 -0,3   Kalm 4,8 1023,6 90 -
15:02 1,2 -0,3   Kalm 3,2 1023,2 90 -
15:07 1,2 -0,3 1,4 ZW 4,8 1023,6 90 -
15:12 1,2 -0,4 6,4 ZZO 8,0 1023,6 89 -
15:17 1,2 -0,4 3,2 ZW 4,8 1023,6 89 -
15:22 1,2 -0,3 1,4 ZZO 3,2 1023,6 90 -
15:27 1,3 -0,3 1,4 ZZO 6,4 1023,6 89 -
15:32 1,2 -0,4   Kalm 4,8 1023,6 89 -
15:37 1,2 -0,4 3,2 ZZO 6,4 1023,6 89 -
15:42 1,2 -0,4 6,4 Zuiden 6,4 1023,2 89 -
15:47 1,2 -0,4 1,4 ZO 6,4 1023,2 89 -
15:52 1,2 -0,4   Kalm 3,2 1023,2 89 -
15:57 1,2 -0,4 3,2 ZO 8,0 1023,2 89 -
16:02 1,2 -0,4 4,7 WZW 4,8 1023,2 89 -
16:07 1,1 -0,5   Kalm 3,2 1023,2 89 -
16:12 1,1 -0,5 3,2 ZZW 4,8 1023,2 89 -
16:17 1,1 -0,5 1,4 Westen 3,2 1023,2 89 -
16:22 1,1 -0,5 6,4 ZZW 6,4 1023,2 89 -
16:27 1,1 -0,5 1,4 Zuiden 3,2 1023,2 89 -
16:32 1,1 -0,5   Kalm 4,8 1023,2 89 -
16:37 1,1 -0,5 1,4 ZW 4,8 1023,2 89 -
16:42 1,1 -0,5 6,4 ZZO 6,4 1023,2 89 -
16:47 1,1 -0,5 4,7 ZW 4,8 1023,2 89 -
16:52 1,1 -0,5   Kalm 6,4 1023,2 89 -
16:57 1,1 -0,5 1,4 ZW 4,8 1023,2 89 -
17:02 1,2 -0,3 3,2 ZZO 6,4 1023,2 90 -
17:07 1,1 -0,5 6,4 ZO 6,4 1022,9 89 -
17:12 1,1 -0,5 1,4 Zuiden 4,8 1023,2 89 -
17:17 1,1 -0,5 4,7 Zuiden 6,4 1023,2 89 -
17:22 1,1 -0,5 1,4 ZW 3,2 1023,2 89 -
17:27 1,1 -0,5 3,2 ZZO 6,4 1023,2 89 -
17:32 1,1 -0,5 1,4 Zuiden 4,8 1022,9 89 -
17:37 1,1 -0,5 3,2 ZW 4,8 1022,9 89 -
17:42 1,1 -0,5   Kalm 3,2 1022,9 89 -
17:47 1,1 -0,5   Kalm 1,6 1023,2 89 -
17:52 1,1 -0,4   Kalm 1,6 1023,2 90 -
17:57 1,1 -0,5 3,2 ZZO 3,2 1023,2 89 -
18:02 1,1 -0,4   Kalm 3,2 1023,2 90 -
18:07 1,1 -0,4   Kalm 1,6 1023,2 90 -
18:12 1,1 -0,4   Kalm   1023,2 90 -
18:17 1,2 -0,3   Kalm 1,6 1023,2 90 -
18:22 1,2 -0,3   Kalm   1023,2 90 -
18:27 1,2 -0,3   Kalm   1023,2 90 -
18:32 1,2 -0,3 1,4 WNW 1,6 1023,2 90 -
18:37 1,2 -0,3   Kalm 1,6 1023,2 90 -
18:42 1,2 -0,3   Kalm   1023,6 90 -
18:47 1,2 -0,3   Kalm   1023,6 90 -
18:52 1,2 -0,3   Kalm 1,6 1023,6 90 -
18:57 1,2 -0,3   Kalm 1,6 1023,6 90 -
19:02 1,2 -0,3   Kalm   1023,6 90 -
19:07 1,2 -0,3   Kalm   1023,6 90 -
19:13 1,2 -0,3   Kalm   1023,6 90 -
19:18 1,2 -0,3   Kalm   1023,6 90 -
19:23 1,2 -0,3   Kalm   1023,6 90 -
19:28 1,3 -0,2   Kalm   1023,6 90 -
19:33 1,3 -0,2   Kalm   1023,9 90 -
19:38 1,3 -0,2   Kalm   1023,9 90 -
19:43 1,3 -0,2   Kalm   1023,9 90 -
19:48 1,3 -0,2   Kalm   1023,9 90 -
19:53 1,3 -0,2   Kalm 1,6 1023,9 90 -
19:58 1,3 -0,2   Kalm   1023,9 90 -
20:03 1,3 -0,2   Kalm 1,6 1023,9 90 -
20:08 1,3 -0,2   Kalm   1023,9 90 -
20:13 1,3 -0,2 1,4 ZW 1,6 1023,9 90 -
20:18 1,3 -0,2   Kalm   1023,9 90 -
20:23 1,3 -0,2   Kalm 3,2 1023,9 90 -
20:28 1,3 -0,2   Kalm   1023,9 90 -
20:33 1,3 -0,2   Kalm   1023,9 90 -
20:38 1,3 0,0   Kalm   1023,9 91 -
20:43 1,3 0,0   Kalm   1023,9 91 -
20:48 1,3 -0,2   Kalm   1023,9 90 -
20:53 1,3 -0,2   Kalm   1023,9 90 -
20:58 1,3 -0,2   Kalm   1024,3 90 -
21:03 1,3 -0,2   Kalm   1024,3 90 -
21:08 1,3 -0,2   Kalm   1024,3 90 -
21:13 1,3 -0,2   Kalm   1024,3 90 -
21:18 1,3 -0,2   Kalm   1024,3 90 -
21:23 1,4 -0,1   Kalm   1023,9 90 -
21:28 1,4 -0,1   Kalm   1023,9 90 -
21:33 1,3 -0,2   Kalm   1023,9 90 -
21:38 1,3 -0,2   Kalm 1,6 1023,9 90 -
21:43 1,3 -0,2   Kalm 3,2 1023,9 90 -
21:49 1,3 -0,2   Kalm 1,6 1023,9 90 -
21:54 1,3 -0,2   Kalm   1023,9 90 -
21:59 1,3 -0,2   Kalm   1023,9 90 -
22:04 1,3 -0,2 1,4 ZZO 1,6 1023,9 90 -
22:09 1,3 -0,2   Kalm 3,2 1023,9 90 -
22:14 1,3 -0,2   Kalm   1023,9 90 -
22:19 1,3 -0,2 3,2 ZZW 3,2 1023,9 90 -
22:24 1,3 -0,2   Kalm 3,2 1023,9 90 -
22:29 1,3 -0,2 3,2 ZW 3,2 1023,6 90 -
22:34 1,3 -0,2 1,4 ZW 1,6 1023,6 90 -
22:39 1,3 -0,2 1,4 ZZW 3,2 1023,6 90 -
22:44 1,3 -0,2   Kalm 1,6 1023,6 90 -
22:49 1,3 -0,2   Kalm 4,8 1023,6 90 -
22:54 1,3 -0,2 6,4 ZZW 6,4 1023,6 90 -
22:59 1,2 -0,3 3,2 ZO 6,4 1023,6 90 -
23:04 1,2 -0,3 1,4 Zuiden 6,4 1023,6 90 -
23:09 1,1 -0,4 3,2 ZZO 8,0 1023,6 90 -
23:14 1,1 -0,4   Kalm 3,2 1023,2 90 -
23:19 1,1 -0,4 1,4 ZZO 3,2 1023,6 90 -
23:24 1,1 -0,4 1,4 ZZO 6,4 1023,6 90 -
23:29 1,1 -0,4 3,2 ZZO 4,8 1023,6 90 -

Download your copy of this data-set  here

Our weather-data as stored at Weather Underground. Script ontwikkeld door Jim McMurry. Aangepast voor de template door Leuven-Template.eu

U vindt ons ook hier:

UK Metoffice

Weather Underground

AWEKAS

Apparatuur in gebruik:

Weerstation
Davis Vantage Vue

Webleverancier
One.com

Davis Vantage Vue

One.com